ARG1766 SABE-SARP

Flight info

Callsign ARG1766
Flight time 1h 17m
Altitude 35000
Route LANDA4B LANDA UN785 POS
Aircraft B738/M-SDE2E3FGHIRWXY/LB1

Departure

Time 2026-04-20 20:54
Airport Aeroparque Jorge Newbery (SABE)

Arrival

Time 2026-04-20 22:12
Airport Libertador Gral D Jose De San Martin Airport (SARP)
Time Latitude Longitude Altitude Speed Heading
2026-04-20 20:29 -34.55537 -58.41725 28 ft 0 kts 34°
2026-04-20 20:43 -34.55540 -58.41727 28 ft 3 kts 34°
2026-04-20 20:43 -34.55557 -58.41741 28 ft 3 kts 34°
2026-04-20 20:44 -34.55574 -58.41754 28 ft 3 kts 33°
2026-04-20 20:44 -34.55591 -58.41766 28 ft 3 kts 18°
2026-04-20 20:44 -34.55611 -58.41771 28 ft 3 kts 353°
2026-04-20 20:44 -34.55628 -58.41765 28 ft 3 kts 316°
2026-04-20 20:45 -34.55636 -58.41754 28 ft 1 kts 304°
2026-04-20 20:45 -34.55637 -58.41753 28 ft 0 kts 304°
2026-04-20 20:47 -34.55635 -58.41755 28 ft 2 kts 304°
2026-04-20 20:47 -34.55620 -58.41783 28 ft 6 kts 304°
2026-04-20 20:48 -34.55618 -58.41834 28 ft 7 kts 239°
2026-04-20 20:48 -34.55626 -58.41844 28 ft 0 kts 222°
2026-04-20 20:50 -34.55632 -58.41851 28 ft 3 kts 222°
2026-04-20 20:50 -34.55649 -58.41885 27 ft 6 kts 259°
2026-04-20 20:51 -34.55634 -58.41934 27 ft 7 kts 302°
2026-04-20 20:51 -34.55607 -58.41982 28 ft 7 kts 304°
2026-04-20 20:51 -34.55575 -58.42036 28 ft 9 kts 306°
2026-04-20 20:51 -34.55538 -58.42097 28 ft 10 kts 307°
2026-04-20 20:52 -34.55495 -58.42164 28 ft 10 kts 307°
2026-04-20 20:52 -34.55450 -58.42236 28 ft 11 kts 307°
2026-04-20 20:52 -34.55401 -58.42316 28 ft 12 kts 307°
2026-04-20 20:52 -34.55364 -58.42405 27 ft 12 kts 281°
2026-04-20 20:53 -34.55365 -58.42490 27 ft 8 kts 242°
2026-04-20 20:53 -34.55404 -58.42499 27 ft 5 kts 152°
2026-04-20 20:53 -34.55422 -58.42472 27 ft 3 kts 127°
2026-04-20 20:53 -34.55434 -58.42453 27 ft 4 kts 126°
2026-04-20 20:54 -34.55534 -58.42277 29 ft 55 kts 123°
2026-04-20 20:54 -34.55865 -58.41680 27 ft 114 kts 124°
2026-04-20 20:54 -34.56382 -58.40733 240 ft 145 kts 122°
2026-04-20 20:54 -34.56951 -58.39634 837 ft 166 kts 120°
2026-04-20 20:55 -34.57526 -58.38312 1437 ft 186 kts 109°
2026-04-20 20:55 -34.57771 -58.36727 2059 ft 199 kts 89°
2026-04-20 20:55 -34.57504 -58.35009 2656 ft 218 kts 66°
2026-04-20 20:55 -34.56648 -58.33440 3318 ft 231 kts 42°
2026-04-20 20:56 -34.55320 -58.32275 4033 ft 243 kts 32°
2026-04-20 20:56 -34.53848 -58.31185 4809 ft 253 kts 29°
2026-04-20 20:56 -34.52317 -58.30077 5585 ft 260 kts 28°
2026-04-20 20:56 -34.50764 -58.28940 6470 ft 262 kts 29°
2026-04-20 20:57 -34.49099 -58.28071 7275 ft 263 kts 11°
2026-04-20 20:57 -34.47279 -58.28012 8039 ft 265 kts 347°
2026-04-20 20:57 -34.45586 -58.28858 8849 ft 266 kts 327°
2026-04-20 20:57 -34.44030 -58.30102 9616 ft 271 kts 324°
2026-04-20 20:58 -34.42467 -58.31445 10237 ft 281 kts 323°
2026-04-20 20:58 -34.40845 -58.32847 10710 ft 294 kts 324°
2026-04-20 20:58 -34.39130 -58.34297 11110 ft 309 kts 324°
2026-04-20 20:58 -34.37322 -58.35796 11502 ft 323 kts 325°
2026-04-20 20:59 -34.35428 -58.37356 11935 ft 335 kts 324°
2026-04-20 20:59 -34.33495 -58.38952 12560 ft 340 kts 324°
2026-04-20 20:59 -34.31538 -58.40577 13225 ft 343 kts 324°
2026-04-20 20:59 -34.29568 -58.42215 13920 ft 346 kts 324°
2026-04-20 21:00 -34.27572 -58.43872 14460 ft 351 kts 324°
2026-04-20 21:00 -34.25548 -58.45550 15045 ft 355 kts 324°
2026-04-20 21:00 -34.23503 -58.47242 15667 ft 358 kts 324°
2026-04-20 21:00 -34.21446 -58.48943 16315 ft 360 kts 324°
2026-04-20 21:01 -34.19377 -58.50653 16947 ft 362 kts 324°
2026-04-20 21:01 -34.17294 -58.52375 17556 ft 365 kts 323°
2026-04-20 21:01 -34.15195 -58.54110 18149 ft 368 kts 324°
2026-04-20 21:01 -34.12941 -58.55602 18652 ft 374 kts 335°
2026-04-20 21:02 -34.10429 -58.56473 19183 ft 381 kts 347°
2026-04-20 21:02 -34.07778 -58.56741 19698 ft 385 kts 353°
2026-04-20 21:02 -34.05095 -58.56883 20197 ft 388 kts 354°
2026-04-20 21:02 -34.02389 -58.56983 20689 ft 391 kts 354°
2026-04-20 21:03 -33.99667 -58.57085 21189 ft 393 kts 353°
2026-04-20 21:03 -33.96932 -58.57211 21663 ft 395 kts 353°
2026-04-20 21:03 -33.94183 -58.57356 22132 ft 397 kts 352°
2026-04-20 21:03 -33.91418 -58.57504 22594 ft 400 kts 352°
2026-04-20 21:04 -33.88636 -58.57641 23051 ft 402 kts 353°
2026-04-20 21:04 -33.85836 -58.57761 23481 ft 404 kts 353°
2026-04-20 21:04 -33.83023 -58.57872 23859 ft 406 kts 353°
2026-04-20 21:04 -33.80198 -58.57988 24241 ft 408 kts 352°
2026-04-20 21:05 -33.77364 -58.58112 24625 ft 409 kts 352°
2026-04-20 21:05 -33.74522 -58.58239 25002 ft 410 kts 352°
2026-04-20 21:05 -33.71672 -58.58366 25369 ft 411 kts 352°
2026-04-20 21:05 -33.68814 -58.58491 25735 ft 413 kts 352°
2026-04-20 21:06 -33.65947 -58.58615 26089 ft 414 kts 352°
2026-04-20 21:06 -33.63071 -58.58739 26411 ft 415 kts 352°
2026-04-20 21:06 -33.60183 -58.58864 26729 ft 417 kts 352°
2026-04-20 21:06 -33.57285 -58.58990 27051 ft 418 kts 352°
2026-04-20 21:07 -33.54378 -58.59116 27377 ft 420 kts 352°
2026-04-20 21:07 -33.51462 -58.59242 27684 ft 421 kts 352°
2026-04-20 21:07 -33.48537 -58.59368 27991 ft 423 kts 352°
2026-04-20 21:07 -33.45601 -58.59495 28294 ft 423 kts 352°
2026-04-20 21:08 -33.42660 -58.59622 28564 ft 424 kts 352°
2026-04-20 21:08 -33.39707 -58.59752 28798 ft 427 kts 352°
2026-04-20 21:08 -33.36737 -58.59882 29019 ft 429 kts 352°
2026-04-20 21:08 -33.33753 -58.60010 29270 ft 431 kts 352°
2026-04-20 21:09 -33.30759 -58.60137 29534 ft 432 kts 352°
2026-04-20 21:09 -33.27758 -58.60266 29786 ft 433 kts 352°
2026-04-20 21:09 -33.24746 -58.60396 30029 ft 435 kts 352°
2026-04-20 21:09 -33.21726 -58.60526 30269 ft 436 kts 352°
2026-04-20 21:10 -33.18705 -58.60657 30511 ft 435 kts 353°
2026-04-20 21:10 -33.15685 -58.60786 30765 ft 435 kts 353°
2026-04-20 21:10 -33.12670 -58.60914 31063 ft 434 kts 352°
2026-04-20 21:10 -33.09669 -58.61041 31400 ft 431 kts 352°
2026-04-20 21:11 -33.06686 -58.61168 31769 ft 428 kts 352°
2026-04-20 21:11 -33.03724 -58.61294 32147 ft 426 kts 353°
2026-04-20 21:11 -33.00762 -58.61093 32537 ft 430 kts
2026-04-20 21:11 -32.97837 -58.60276 32947 ft 434 kts
2026-04-20 21:12 -32.94958 -58.59257 33327 ft 431 kts
2026-04-20 21:12 -32.92108 -58.58201 33703 ft 428 kts
2026-04-20 21:12 -32.89280 -58.57135 34055 ft 426 kts
2026-04-20 21:12 -32.86466 -58.56091 34344 ft 423 kts
2026-04-20 21:13 -32.83659 -58.55073 34605 ft 423 kts
2026-04-20 21:13 -32.80852 -58.54063 34836 ft 422 kts
2026-04-20 21:13 -32.78043 -58.53048 34964 ft 425 kts
2026-04-20 21:13 -32.75211 -58.52018 34976 ft 428 kts
2026-04-20 21:14 -32.69529 -58.49938 34962 ft 427 kts
2026-04-20 21:14 -32.63888 -58.47885 34973 ft 423 kts
2026-04-20 21:15 -32.58318 -58.45867 34975 ft 416 kts
2026-04-20 21:15 -32.52785 -58.43862 34976 ft 418 kts
2026-04-20 21:16 -32.47232 -58.41854 34978 ft 418 kts
2026-04-20 21:16 -32.41672 -58.39841 34970 ft 419 kts
2026-04-20 21:17 -32.36110 -58.37833 34976 ft 419 kts
2026-04-20 21:17 -32.30543 -58.35826 34984 ft 419 kts
2026-04-20 21:18 -32.24980 -58.33820 34976 ft 419 kts
2026-04-20 21:18 -32.19408 -58.31815 34983 ft 420 kts
2026-04-20 21:19 -32.13836 -58.29811 34980 ft 420 kts
2026-04-20 21:20 -32.05474 -58.26810 34979 ft 420 kts
2026-04-20 21:20 -31.99900 -58.24813 34983 ft 420 kts
2026-04-20 21:21 -31.94321 -58.22817 34959 ft 420 kts
2026-04-20 21:21 -31.88736 -58.20820 34978 ft 422 kts
2026-04-20 21:22 -31.83121 -58.18818 34967 ft 422 kts
2026-04-20 21:22 -31.77529 -58.16820 34973 ft 420 kts
2026-04-20 21:23 -31.71955 -58.14836 34973 ft 419 kts
2026-04-20 21:23 -31.66382 -58.12857 34968 ft 420 kts
2026-04-20 21:24 -31.60805 -58.10874 34975 ft 420 kts
2026-04-20 21:24 -31.55226 -58.08895 34982 ft 420 kts
2026-04-20 21:25 -31.49651 -58.06920 34980 ft 419 kts
2026-04-20 21:25 -31.44081 -58.04947 34983 ft 420 kts
2026-04-20 21:26 -31.38493 -58.02975 34974 ft 420 kts
2026-04-20 21:26 -31.32918 -58.01006 34982 ft 419 kts
2026-04-20 21:27 -31.27368 -57.99047 34977 ft 417 kts
2026-04-20 21:27 -31.21819 -57.97095 34981 ft 418 kts
2026-04-20 21:28 -31.16258 -57.95140 34980 ft 418 kts
2026-04-20 21:28 -31.10694 -57.93188 34973 ft 419 kts
2026-04-20 21:29 -31.05135 -57.91227 34976 ft 419 kts
2026-04-20 21:29 -30.99555 -57.89280 34972 ft 419 kts
2026-04-20 21:30 -30.93972 -57.87334 34972 ft 419 kts
2026-04-20 21:30 -30.88401 -57.85378 34959 ft 419 kts
2026-04-20 21:31 -30.82825 -57.83430 34974 ft 420 kts
2026-04-20 21:31 -30.77226 -57.81482 34970 ft 421 kts
2026-04-20 21:32 -30.71625 -57.79532 34964 ft 421 kts
2026-04-20 21:32 -30.66028 -57.77578 34963 ft 421 kts
2026-04-20 21:33 -30.60427 -57.75610 34952 ft 422 kts
2026-04-20 21:33 -30.54800 -57.73642 34963 ft 424 kts
2026-04-20 21:34 -30.49160 -57.71673 34971 ft 424 kts
2026-04-20 21:34 -30.43526 -57.69704 34970 ft 423 kts
2026-04-20 21:35 -30.37898 -57.67743 34969 ft 423 kts
2026-04-20 21:35 -30.32263 -57.65782 34961 ft 424 kts
2026-04-20 21:36 -30.26621 -57.63713 34966 ft 433 kts 16°
2026-04-20 21:36 -30.21179 -57.60588 34969 ft 440 kts 20°
2026-04-20 21:37 -30.15768 -57.57308 34969 ft 440 kts 20°
2026-04-20 21:37 -30.10359 -57.54065 34974 ft 438 kts 20°
2026-04-20 21:38 -30.04960 -57.50859 34960 ft 437 kts 20°
2026-04-20 21:38 -29.99544 -57.47629 34974 ft 440 kts 20°
2026-04-20 21:39 -29.94103 -57.44387 34976 ft 441 kts 20°
2026-04-20 21:39 -29.88664 -57.41154 34975 ft 440 kts 20°
2026-04-20 21:40 -29.83232 -57.37927 34966 ft 440 kts 20°
2026-04-20 21:40 -29.77798 -57.34704 34960 ft 441 kts 20°
2026-04-20 21:41 -29.72344 -57.31474 34968 ft 442 kts 20°
2026-04-20 21:41 -29.66896 -57.28248 34966 ft 441 kts 20°
2026-04-20 21:42 -29.61461 -57.25036 34965 ft 440 kts 20°
2026-04-20 21:42 -29.56037 -57.21835 34961 ft 439 kts 20°
2026-04-20 21:43 -29.50605 -57.18634 34969 ft 440 kts 20°
2026-04-20 21:43 -29.45170 -57.15432 34966 ft 439 kts 20°
2026-04-20 21:44 -29.39736 -57.12239 34961 ft 441 kts 20°
2026-04-20 21:44 -29.34298 -57.09046 34957 ft 440 kts 20°
2026-04-20 21:45 -29.28847 -57.05846 34958 ft 442 kts 21°
2026-04-20 21:45 -29.23372 -57.02639 34960 ft 443 kts 20°
2026-04-20 21:46 -29.17882 -56.99426 34956 ft 445 kts 21°
2026-04-20 21:46 -29.12381 -56.96208 34959 ft 445 kts 21°
2026-04-20 21:47 -29.06881 -56.93002 34955 ft 444 kts 21°
2026-04-20 21:47 -29.01390 -56.89818 34957 ft 444 kts 21°
2026-04-20 21:47 -28.98629 -56.88219 34505 ft 448 kts 21°
2026-04-20 21:48 -28.95860 -56.86611 33983 ft 447 kts 21°
2026-04-20 21:48 -28.93102 -56.85007 33436 ft 445 kts 21°
2026-04-20 21:48 -28.90358 -56.83415 32928 ft 442 kts 21°
2026-04-20 21:48 -28.87621 -56.81830 32446 ft 440 kts 21°
2026-04-20 21:49 -28.84895 -56.80254 31954 ft 440 kts 21°
2026-04-20 21:49 -28.82174 -56.78683 31477 ft 439 kts 21°
2026-04-20 21:49 -28.79464 -56.77118 30989 ft 438 kts 21°
2026-04-20 21:49 -28.76755 -56.75553 30507 ft 437 kts 21°
2026-04-20 21:50 -28.74048 -56.73988 30018 ft 437 kts 21°
2026-04-20 21:50 -28.71348 -56.72429 29494 ft 435 kts 21°
2026-04-20 21:50 -28.68656 -56.70877 29002 ft 433 kts 21°
2026-04-20 21:50 -28.65981 -56.69336 28522 ft 431 kts 21°
2026-04-20 21:51 -28.63320 -56.67804 28042 ft 429 kts 21°
2026-04-20 21:51 -28.60668 -56.66278 27559 ft 426 kts 21°
2026-04-20 21:51 -28.58030 -56.64760 27094 ft 426 kts 21°
2026-04-20 21:51 -28.55397 -56.63245 26625 ft 425 kts 21°
2026-04-20 21:52 -28.52768 -56.61734 26168 ft 424 kts 21°
2026-04-20 21:52 -28.50142 -56.60227 25698 ft 423 kts 21°
2026-04-20 21:52 -28.47520 -56.58723 25228 ft 423 kts 21°
2026-04-20 21:52 -28.44901 -56.57222 24756 ft 423 kts 21°
2026-04-20 21:53 -28.42285 -56.55723 24296 ft 421 kts 21°
2026-04-20 21:53 -28.39678 -56.54227 23826 ft 420 kts 21°
2026-04-20 21:53 -28.37068 -56.52726 23327 ft 421 kts 21°
2026-04-20 21:53 -28.34465 -56.51232 22824 ft 418 kts 21°
2026-04-20 21:54 -28.31880 -56.49760 22362 ft 415 kts 21°
2026-04-20 21:54 -28.29311 -56.48293 21903 ft 413 kts 21°
2026-04-20 21:54 -28.26757 -56.46837 21448 ft 411 kts 21°
2026-04-20 21:54 -28.24221 -56.45386 20990 ft 407 kts 21°
2026-04-20 21:55 -28.21708 -56.43948 20537 ft 404 kts 20°
2026-04-20 21:55 -28.19210 -56.42518 20091 ft 402 kts 20°
2026-04-20 21:55 -28.16722 -56.41099 19645 ft 400 kts 20°
2026-04-20 21:55 -28.14243 -56.39688 19200 ft 400 kts 20°
2026-04-20 21:56 -28.11770 -56.38283 18761 ft 399 kts 20°
2026-04-20 21:56 -28.09313 -56.36885 18320 ft 394 kts 20°
2026-04-20 21:56 -28.06876 -56.35498 17836 ft 391 kts 20°
2026-04-20 21:56 -28.04468 -56.34125 17394 ft 386 kts 20°
2026-04-20 21:57 -28.02087 -56.32767 16960 ft 383 kts 20°
2026-04-20 21:57 -27.99724 -56.31423 16540 ft 379 kts 20°
2026-04-20 21:57 -27.97383 -56.30094 16129 ft 375 kts 20°
2026-04-20 21:57 -27.95069 -56.28784 15715 ft 371 kts 20°
2026-04-20 21:58 -27.92784 -56.27490 15303 ft 366 kts 20°
2026-04-20 21:58 -27.90528 -56.26210 14901 ft 361 kts 20°
2026-04-20 21:58 -27.88305 -56.24949 14510 ft 356 kts 21°
2026-04-20 21:58 -27.86110 -56.23704 14108 ft 351 kts 21°
2026-04-20 21:59 -27.83946 -56.22478 13718 ft 346 kts 21°
2026-04-20 21:59 -27.81815 -56.21267 13309 ft 340 kts 21°
2026-04-20 21:59 -27.79722 -56.20080 12912 ft 335 kts 21°
2026-04-20 21:59 -27.77662 -56.18919 12545 ft 329 kts 21°
2026-04-20 22:00 -27.75637 -56.17779 12184 ft 323 kts 21°
2026-04-20 22:00 -27.73648 -56.16657 11822 ft 317 kts 22°
2026-04-20 22:00 -27.71706 -56.15558 11568 ft 309 kts 22°
2026-04-20 22:00 -27.69818 -56.14489 11302 ft 301 kts 22°
2026-04-20 22:01 -27.67969 -56.13445 10922 ft 296 kts 22°
2026-04-20 22:01 -27.66132 -56.12413 10478 ft 295 kts 22°
2026-04-20 22:01 -27.64300 -56.11382 10041 ft 294 kts 22°
2026-04-20 22:01 -27.62482 -56.10356 9601 ft 292 kts 23°
2026-04-20 22:02 -27.60674 -56.09336 9146 ft 290 kts 23°
2026-04-20 22:02 -27.58876 -56.08322 8695 ft 289 kts 23°
2026-04-20 22:02 -27.57081 -56.07311 8228 ft 288 kts 24°
2026-04-20 22:02 -27.55294 -56.06305 7797 ft 289 kts 23°
2026-04-20 22:03 -27.53506 -56.05297 7382 ft 286 kts 23°
2026-04-20 22:03 -27.51731 -56.04298 6934 ft 285 kts 24°
2026-04-20 22:03 -27.49974 -56.03306 6512 ft 283 kts 24°
2026-04-20 22:03 -27.48211 -56.02316 6145 ft 283 kts 23°
2026-04-20 22:04 -27.46466 -56.01334 5810 ft 279 kts 24°
2026-04-20 22:04 -27.44744 -56.00365 5347 ft 278 kts 24°
2026-04-20 22:04 -27.43008 -55.99400 4881 ft 280 kts 24°
2026-04-20 22:04 -27.41272 -55.98432 4536 ft 278 kts 24°
2026-04-20 22:05 -27.39548 -55.97462 4113 ft 278 kts 25°
2026-04-20 22:05 -27.37750 -55.96726 3690 ft 275 kts 13°
2026-04-20 22:05 -27.35908 -55.96247 3231 ft 269 kts 12°
2026-04-20 22:05 -27.34089 -55.95809 2686 ft 265 kts 13°
2026-04-20 22:06 -27.32363 -55.95410 2649 ft 242 kts 12°
2026-04-20 22:06 -27.30771 -55.95037 2636 ft 228 kts 13°
2026-04-20 22:06 -27.29250 -55.94675 2635 ft 223 kts 13°
2026-04-20 22:06 -27.27750 -55.94314 2622 ft 220 kts 13°
2026-04-20 22:07 -27.26269 -55.93959 2600 ft 217 kts 12°
2026-04-20 22:07 -27.24836 -55.93619 2609 ft 202 kts 13°
2026-04-20 22:07 -27.23515 -55.93450 2571 ft 186 kts 351°
2026-04-20 22:07 -27.22420 -55.94110 2588 ft 181 kts 314°
2026-04-20 22:08 -27.21947 -55.95380 2585 ft 182 kts 275°
2026-04-20 22:08 -27.22374 -55.96729 2617 ft 193 kts 227°
2026-04-20 22:08 -27.23538 -55.97333 2644 ft 186 kts 179°
2026-04-20 22:08 -27.24842 -55.97307 2653 ft 188 kts 175°
2026-04-20 22:09 -27.26108 -55.97272 2624 ft 176 kts 178°
2026-04-20 22:09 -27.27315 -55.97247 2396 ft 170 kts 177°
2026-04-20 22:09 -27.28459 -55.97227 2174 ft 159 kts 175°
2026-04-20 22:09 -27.29551 -55.97207 2012 ft 155 kts 174°
2026-04-20 22:10 -27.30596 -55.97190 1812 ft 147 kts 174°
2026-04-20 22:10 -27.31597 -55.97172 1607 ft 142 kts 174°
2026-04-20 22:10 -27.32573 -55.97155 1427 ft 141 kts 174°
2026-04-20 22:10 -27.33549 -55.97138 1238 ft 141 kts 174°
2026-04-20 22:11 -27.34544 -55.97121 1055 ft 146 kts 176°
2026-04-20 22:11 -27.35567 -55.97102 844 ft 149 kts 175°
2026-04-20 22:11 -27.36604 -55.97086 683 ft 149 kts 176°
2026-04-20 22:11 -27.37628 -55.97070 419 ft 144 kts 175°
2026-04-20 22:12 -27.38471 -55.97053 412 ft 69 kts 179°
2026-04-20 22:12 -27.38770 -55.97049 414 ft 24 kts 179°
2026-04-20 22:12 -27.38912 -55.97031 414 ft 17 kts 162°
2026-04-20 22:12 -27.38997 -55.96987 421 ft 10 kts 151°
2026-04-20 22:13 -27.39042 -55.96957 419 ft 5 kts 148°
2026-04-20 22:13 -27.39067 -55.96936 423 ft 6 kts 136°
2026-04-20 22:13 -27.39081 -55.96896 428 ft 7 kts 97°
2026-04-20 22:13 -27.39083 -55.96833 422 ft 8 kts 90°
2026-04-20 22:14 -27.39097 -55.96787 429 ft 8 kts 139°
2026-04-20 22:14 -27.39141 -55.96779 429 ft 5 kts 180°
2026-04-20 22:14 -27.39171 -55.96779 430 ft 3 kts 180°
2026-04-20 22:14 -27.39186 -55.96766 427 ft 3 kts 111°
2026-04-20 22:15 -27.39198 -55.96740 429 ft 3 kts 143°
2026-04-20 22:15 -27.39200 -55.96739 430 ft 0 kts 151°